RH
68 57 41 40 39 40 46 42 35 33 30 32 37 37 33 32 25 26 27 28 29 33 37 39 42 47 42 37 27 24 24 20 18 18 16 12 11 5 4 3 2 3 3 3 4 5 8
41 60 52 60 45 43 58 50 49 40 38 33 36 40 48 44 41 31 30 32 34 36 39 41 43 51 55 44 30 28 26 22 20 17 17 13 12 9 5 4 3 2 3 3 4 5 6
40 50 64 75 88 80 69 64 51 58 47 44 39 32 29 52 44 42 45 44 47 53 48 49 55 61 62 49 35 31 29 26 22 18 18 17 14 13 6 4 3 3 3 3 4 4 5
51 48 46 40 40 42 55 56 59 70 64 56 51 48 34 28 60 74 54 43 46 63 62 65 68 70 62 52 43 37 34 31 24 21 18 18 16 16 11 5 4 3 3 3 3 4 6
60 58 53 49 61 54 39 42 64 50 86 78 54 47 46 34 32 73 74 81 81 81 80 79 80 75 73 59 52 49 38 38 29 23 19 18 18 15 16 7 4 4 3 3 3 3 4
100 71 90 87 64 56 56 40 54 61 90 100 80 61 43 42 30 40 67 57 60 74 84 82 84 79 85 73 66 60 46 42 35 26 22 19 18 18 16 14 6 5 4 4 3 3 3
70 95 80 70 81 68 54 65 41 44 48 100 91 72 63 47 39 35 34 46 40 51 56 75 79 83 78 83 78 67 56 48 43 32 26 22 18 17 16 16 12 6 5 4 4 3 3
61 99 93 94 77 87 81 57 58 47 45 65 100 90 71 76 46 60 38 41 54 36 42 61 68 85 80 90 97 87 61 55 50 39 30 26 21 18 18 16 17 10 6 6 4 4 4
81 68 67 75 72 59 64 72 60 51 62 57 56 67 61 53 54 67 58 66 48 53 37 37 63 81 78 97 100 94 77 58 55 46 36 31 25 20 18 18 18 18 8 6 6 4 4
95 78 78 76 76 68 75 72 65 53 60 58 53 73 67 57 66 82 96 72 56 49 41 44 48 70 45 92 100 100 90 64 64 52 43 35 31 25 19 18 18 19 18 8 6 7 5
90 87 68 74 68 74 75 72 69 63 66 72 68 66 88 84 69 63 75 86 76 66 71 58 58 77 64 48 90 100 97 69 67 55 49 43 38 31 23 20 20 19 20 17 9 8 8
100 95 98 96 100 100 90 85 77 71 71 73 81 85 80 100 100 92 82 76 98 90 81 65 52 61 53 44 52 100 94 77 70 61 56 54 47 38 29 21 21 23 22 23 20 9 8
100 100 100 100 100 100 100 94 88 84 78 86 92 93 86 89 93 99 100 100 100 100 94 86 74 61 56 50 42 71 99 87 73 75 64 61 56 46 36 27 23 22 24 24 24 17 9
100 100 100 100 100 100 100 100 100 100 100 100 100 100 100 100 100 97 100 100 100 100 100 100 89 77 56 60 44 46 78 100 83 71 79 74 66 53 42 34 28 21 22 24 23 24 22
100 100 100 100 100 100 100 100 100 100 100 100 100 100 99 97 94 90 98 100 100 100 100 100 100 84 76 58 47 46 48 84 99 85 81 78 74 62 51 44 41 30 24 25 25 26 24
100 100 100 100 100 100 100 100 100 100 100 100 100 100 100 92 90 86 95 98 89 100 100 100 100 100 100 89 74 52 51 65 99 100 90 90 76 70 60 53 48 44 34 30 31 27 29
100 100 100 100 100 100 100 100 100 100 100 100 100 100 100 100 100 99 83 98 98 100 95 100 100 100 100 100 95 74 62 52 91 99 98 90 89 77 73 61 57 58 48 36 30 30 28
100 100 100 100 100 100 100 100 100 100 100 100 100 98 100 96 100 100 100 91 95 95 93 84 100 100 100 100 100 94 85 63 61 94 100 98 97 91 79 69 66 64 63 53 42 32 32
64 67 76 98 100 100 100 100 100 100 100 100 99 99 100 99 100 100 100 100 93 100 100 94 94 97 100 100 97 100 100 82 60 62 98 100 96 100 89 82 67 69 80 68 68 48 39
65 70 68 65 72 79 91 100 100 100 100 98 97 100 100 100 96 100 100 100 99 99 99 95 90 86 86 98 100 100 100 100 97 82 74 100 100 93 94 98 86 63 81 84 79 70 58
92 92 82 84 78 64 62 63 61 71 69 74 92 93 99 100 100 100 100 100 99 100 96 100 92 99 77 76 84 98 100 100 100 77 76 68 99 100 100 91 97 85 61 75 88 88 80
96 96 100 96 88 84 86 76 66 54 52 60 61 57 62 77 90 88 86 80 100 100 100 100 99 77 70 78 82 75 83 100 100 100 91 88 81 100 100 100 95 100 68 68 91 90 81
100 100 100 100 100 100 100 98 88 86 71 65 66 75 59 56 62 71 84 79 73 66 64 70 68 69 68 66 60 65 80 79 99 100 100 95 74 84 100 100 100 91 100 88 72 88 86
98 92 81 95 97 91 92 96 100 100 93 82 78 66 61 61 53 64 67 76 76 63 71 66 54 49 52 55 54 52 58 71 64 74 95 94 82 73 88 100 100 100 99 97 97 70 80
100 100 100 100 100 100 93 92 86 92 84 90 90 75 63 58 56 63 62 66 64 70 80 69 52 59 59 71 56 43 52 55 57 56 68 93 86 71 95 100 100 100 100 100 87 93 82
100 100 100 100 100 99 84 80 88 92 80 70 63 68 59 52 68 87 68 79 65 73 82 95 92 86 88 79 72 65 52 58 52 57 68 84 69 77 69 95 100 100 100 100 100 100 85
100 100 100 100 96 83 73 79 79 87 90 73 63 57 48 35 64 63 63 81 97 91 81 100 95 96 96 80 78 72 58 62 46 51 63 55 54 84 78 67 83 97 100 100 100 100 100
100 94 90 83 86 99 100 96 90 82 93 100 100 100 93 71 69 64 80 93 100 100 100 100 100 95 100 85 72 87 80 70 52 53 48 57 63 59 74 85 99 100 100 100 100 100 100
72 75 69 70 77 79 78 80 84 98 97 85 79 82 75 33 30 42 30 33 51 70 58 64 71 100 100 100 100 100 70 59 69 66 67 53 63 60 69 80 89 84 100 100 100 100 100
Wind_Speed
16 16 13 13 12 15 19 20 15 18 20 18 18 19 19 20 21 20 23 24 26 31 33 35 38 42 45 50 53 57 63 68 72 75 77 73 69 57 45 34 28 33 41 48 64 78 89
19 18 18 17 17 19 21 20 20 19 19 21 19 24 24 23 24 24 25 25 29 33 35 38 41 44 45 49 52 56 62 68 72 76 77 77 74 67 53 40 29 24 29 40 52 66 80
19 21 19 22 20 21 23 23 23 24 22 23 24 23 26 26 27 28 29 30 32 34 36 39 41 44 45 48 52 55 61 68 72 76 78 81 78 75 62 46 33 24 21 28 40 54 68
22 24 27 27 28 30 27 30 27 27 26 24 23 25 31 30 29 29 32 35 35 37 38 39 41 42 44 47 52 56 61 66 72 76 78 80 81 80 73 56 40 28 19 20 30 43 56
27 29 31 31 29 30 31 31 30 30 31 29 25 28 30 33 33 31 32 35 36 35 37 38 38 38 43 45 50 56 59 63 68 73 78 79 82 80 80 66 50 35 22 15 20 32 48
34 31 33 31 32 32 35 32 31 32 37 31 30 32 32 32 31 34 34 35 36 36 36 36 37 39 41 45 48 53 58 60 64 70 75 79 79 80 77 72 56 43 29 17 13 21 36
39 40 36 37 37 37 37 37 34 32 35 38 38 34 34 32 35 34 38 35 36 37 39 40 42 42 41 45 47 52 55 59 60 65 70 74 78 80 79 79 68 51 38 22 12 13 23
43 43 44 43 40 41 41 41 40 38 36 38 39 39 41 38 39 39 35 37 38 39 40 41 41 42 45 46 47 50 53 56 58 60 67 69 73 79 79 79 78 63 47 31 18 10 14
48 49 48 48 46 46 45 43 45 44 42 41 45 47 49 45 43 42 39 38 41 41 41 45 43 41 46 48 46 49 51 54 56 58 61 65 71 74 77 78 77 74 56 41 27 15 7
52 53 51 51 51 52 51 51 51 50 46 48 48 50 50 48 45 43 42 42 45 44 40 45 46 42 44 46 46 47 51 52 54 56 56 59 66 69 72 72 73 74 70 52 37 26 15
60 61 61 58 60 59 58 57 55 52 53 53 53 53 52 52 48 45 46 50 47 47 49 46 46 41 41 47 49 46 49 51 49 53 53 54 59 63 67 71 74 75 72 65 49 33 25
64 65 64 64 64 64 62 61 60 59 59 58 57 55 56 54 52 52 52 51 50 49 49 47 46 43 45 45 49 49 49 50 48 50 52 52 55 57 60 65 69 70 70 71 63 44 31
65 65 66 67 66 65 63 63 64 62 62 61 62 60 59 57 60 59 56 55 52 49 46 48 48 48 49 47 51 50 49 48 45 46 49 47 50 51 53 57 61 62 65 66 66 54 40
65 65 66 66 65 65 65 64 63 64 63 62 64 64 61 61 60 58 57 56 54 50 47 49 51 53 51 50 54 47 49 48 45 43 45 45 44 44 48 49 54 57 59 60 61 66 58
65 67 66 66 65 65 64 64 62 62 63 62 63 64 64 62 62 60 58 58 57 52 50 52 52 52 51 52 49 44 50 48 45 41 42 42 41 41 43 44 48 51 54 56 58 58 61
65 64 66 68 66 67 67 69 67 66 66 64 65 65 66 67 64 62 62 62 59 56 54 51 49 50 48 46 47 46 44 50 45 42 40 40 41 40 40 41 41 44 46 49 50 52 53
70 66 68 70 68 66 68 69 71 72 70 69 68 69 70 69 68 67 65 63 61 59 57 56 53 48 51 50 49 48 46 47 44 43 42 40 39 39 36 36 36 37 40 42 43 46 47
78 78 77 74 75 74 72 73 73 73 71 72 71 69 71 71 71 70 67 66 66 66 63 58 55 54 50 49 50 49 47 45 41 42 42 42 38 39 36 34 34 33 34 36 37 39 40
70 73 80 77 79 81 81 80 78 74 76 78 78 73 70 72 71 71 70 70 69 69 69 65 61 60 59 58 55 53 53 51 45 42 41 41 39 38 39 34 30 31 30 31 33 33 34
61 62 58 65 64 68 71 74 76 77 81 83 80 74 74 73 73 71 72 68 69 70 70 72 69 67 65 60 60 55 55 55 53 47 43 42 43 38 34 35 33 30 29 28 29 29 29
70 68 68 68 67 66 70 71 71 72 77 78 73 75 75 74 75 76 72 68 66 71 72 73 71 71 71 68 66 62 59 56 55 56 51 44 44 41 40 33 33 32 28 28 26 27 26
70 66 69 72 74 74 75 76 76 75 75 74 73 74 69 68 74 76 72 68 71 74 74 75 75 76 74 70 72 67 65 63 59 58 55 50 44 44 46 40 33 35 32 29 28 26 25
81 78 76 77 77 79 78 80 82 81 79 77 76 75 74 68 68 68 64 63 62 65 63 67 66 67 66 70 69 66 66 66 64 62 61 60 53 47 48 45 40 36 37 34 32 30 28
87 84 84 84 86 86 86 86 87 86 88 88 85 84 84 73 72 67 69 68 67 69 66 72 73 70 65 68 70 68 68 66 67 67 63 62 60 55 50 51 45 43 42 40 36 35 33
86 86 89 90 90 92 92 94 93 92 91 88 87 91 90 81 80 70 76 77 78 78 77 76 77 73 71 70 69 66 63 62 64 63 68 66 60 55 53 51 51 49 48 45 43 41 40
92 94 94 93 95 96 95 93 90 90 91 91 91 93 93 89 72 81 85 82 82 83 83 82 82 80 78 78 75 70 64 58 55 61 60 61 68 63 56 51 51 53 52 52 48 47 47
91 96 94 96 98 100 99 98 98 98 100 98 97 101 102 99 81 91 89 90 90 90 87 90 88 90 89 87 82 76 70 64 58 56 61 65 63 61 63 56 54 57 55 52 52 53 49
98 99 100 102 102 100 103 103 104 105 106 108 107 108 111 113 96 105 101 100 99 98 99 96 98 96 96 95 91 85 81 76 69 64 62 61 60 62 63 64 61 61 60 60 59 56 55
104 105 106 107 110 112 114 117 118 119 120 120 117 122 127 117 97 112 104 100 105 109 105 108 103 102 104 103 100 99 94 85 78 74 70 67 63 61 60 60 67 68 69 67 65 63 61
Wind_Direction
283 288 284 292 299 315 322 326 327 329 333 328 327 315 318 316 314 312 313 313 315 316 319 321 325 328 329 334 339 345 348 353 355 355 355 358 360 356 347 332 295 266 253 242 233 230 228
281 286 270 280 290 296 304 305 315 313 325 326 329 321 318 311 312 308 305 307 311 314 315 319 324 326 328 332 337 343 349 353 355 357 357 0 5 2 357 348 326 287 262 246 236 229 227
272 271 279 288 287 294 295 303 295 307 301 313 316 328 321 315 306 306 308 309 310 315 316 319 324 327 327 331 334 342 348 354 356 358 0 2 5 7 3 358 346 315 279 255 241 232 226
266 264 274 286 287 296 300 303 301 296 298 292 312 306 321 320 314 309 304 304 307 312 314 318 322 327 328 330 334 339 346 352 356 359 1 4 6 8 7 4 359 339 300 258 243 233 227
264 274 271 278 281 288 300 298 295 304 295 290 296 306 308 315 317 312 310 312 314 316 317 319 322 326 327 329 334 338 344 351 355 359 1 4 6 9 10 9 7 357 334 295 249 236 228
268 272 274 272 281 285 289 303 294 294 299 288 289 297 302 303 306 311 309 317 317 319 323 324 324 327 328 329 333 337 342 349 355 357 360 2 6 10 10 13 13 8 356 328 284 245 231
266 269 268 272 279 283 288 294 301 292 295 296 291 292 301 303 303 303 306 306 316 318 322 323 325 327 331 331 331 337 341 345 353 356 357 1 4 8 12 14 14 14 10 356 324 275 241
268 265 267 271 273 278 282 287 293 292 291 290 294 291 296 296 303 299 302 306 304 311 319 320 323 326 330 330 332 335 339 342 348 355 356 359 3 7 12 14 16 15 15 13 358 321 266
265 266 266 268 269 276 279 282 290 293 287 286 286 289 293 294 295 298 296 299 305 302 309 320 317 322 329 329 331 333 337 339 344 353 355 358 3 4 10 13 16 19 17 17 16 353 302
262 263 262 264 271 274 277 280 285 287 283 284 287 288 288 291 292 295 292 297 300 301 305 314 312 315 326 328 328 329 333 338 341 349 355 358 360 3 5 11 16 20 22 20 21 14 356
264 264 265 266 269 270 275 279 283 285 281 281 284 286 285 285 288 289 293 295 295 298 302 307 307 308 321 328 325 327 329 335 338 343 350 355 358 1 5 7 12 19 22 24 22 21 16
263 263 264 265 269 270 274 276 280 280 281 279 281 281 284 282 284 287 290 293 291 295 298 302 302 305 312 319 325 321 325 328 333 339 346 351 355 358 2 6 10 16 21 25 24 24 25
257 260 263 266 268 269 271 274 276 276 277 277 277 278 281 281 285 288 289 290 291 292 293 295 298 301 309 314 321 316 319 323 330 335 340 345 352 356 0 3 7 12 18 24 28 31 31
257 259 262 264 265 268 268 268 270 272 272 273 276 277 278 277 280 284 286 288 289 287 289 293 295 299 301 307 314 316 317 319 325 330 336 339 348 352 356 360 4 8 13 20 27 32 34
261 259 258 260 261 263 264 267 266 268 270 273 274 275 276 277 279 281 282 282 283 286 287 289 294 298 301 304 307 307 315 315 319 324 329 333 339 346 351 355 1 3 8 14 21 27 33
261 262 260 259 263 262 265 266 268 267 269 270 270 272 273 277 279 280 278 277 281 279 282 288 289 294 298 299 302 305 310 312 313 318 323 326 331 337 345 349 355 1 3 8 15 20 29
257 256 259 259 261 260 263 265 268 269 268 270 269 272 272 274 276 278 279 278 276 276 277 284 289 290 293 295 298 302 302 309 307 311 315 320 323 329 335 342 347 353 357 1 9 14 20
259 260 258 259 259 260 264 264 264 265 265 267 267 271 273 274 274 276 277 277 280 280 277 276 282 287 288 291 295 297 298 300 302 307 309 313 315 319 324 331 336 341 350 353 359 7 13
264 263 264 265 266 264 265 265 264 265 268 267 269 270 269 271 270 273 274 275 277 278 278 277 276 279 283 285 287 290 290 293 296 300 302 304 307 311 314 319 324 329 336 342 346 354 2
264 265 264 263 263 264 267 263 264 266 267 267 267 267 269 268 271 270 272 273 274 276 276 277 277 277 276 280 283 284 285 287 289 292 295 299 302 302 302 307 313 319 322 328 333 340 348
270 269 266 266 266 263 264 266 264 264 268 268 265 266 267 266 268 269 271 273 272 274 275 276 277 277 276 277 276 278 280 281 283 285 287 289 293 299 297 296 302 302 309 312 316 323 330
266 266 266 266 266 266 265 266 267 268 266 268 268 267 268 266 265 267 269 271 272 271 273 276 276 277 278 278 276 276 274 275 278 282 283 284 285 289 295 295 291 294 297 300 303 303 311
262 263 264 265 267 269 269 269 270 269 267 265 263 266 266 266 267 265 265 268 270 273 275 277 274 278 279 278 279 277 273 270 272 277 280 280 281 279 284 288 288 286 289 286 289 293 293
261 263 262 265 266 268 266 267 268 268 269 269 268 265 266 263 263 263 265 267 273 273 278 275 276 277 278 276 276 277 277 277 276 272 274 274 276 277 275 278 282 285 279 280 281 284 286
259 261 263 264 265 265 268 269 269 268 269 267 266 266 266 264 265 266 264 267 270 274 279 280 278 280 278 278 276 276 275 276 276 276 273 272 272 273 269 270 275 276 280 278 278 280 279
259 262 264 264 264 266 266 265 265 266 265 265 265 265 264 262 262 265 266 269 271 273 275 277 278 278 278 278 276 275 274 277 275 278 278 274 271 269 268 265 268 272 275 277 278 278 275
257 258 258 261 263 264 263 263 263 265 267 267 266 267 267 266 267 265 266 267 270 273 275 276 277 277 278 278 277 279 279 276 274 272 268 273 272 270 263 263 263 264 269 272 275 276 274
257 258 258 258 259 261 263 264 265 264 264 264 264 265 266 268 267 269 266 265 266 266 269 270 270 273 275 276 275 276 277 277 277 276 274 274 272 269 269 261 259 262 265 268 269 270 273
261 260 260 261 262 263 264 265 265 264 265 265 265 266 267 269 267 266 266 265 265 266 266 267 265 264 266 268 271 272 273 272 276 277 278 274 274 268 267 266 263 261 261 263 264 266 267